Location: Demmingen
(48.6757°N, 10.4375°E)
Time: 09:30:18
(UTC+00:00)

USA 267 - Pass Details

Date: 16 August 2024
Orbit: 1096 x 1111 km, 123.1° (Epoch: 03 September)

Event Time Altitude Azimuth Distance (km) Brightness Sun altitude
Exits shadow 20:24:32 - 190° (S) 3,822 5.8 -16.5°
Reaches altitude 10° 20:28:33 10° 217° (SW) 2,955 5.4 -17.0°
Maximum altitude 20:31:11 13° 241° (WSW) 2,764 5.5 -17.3°
Drops below altitude 10° 20:33:51 10° 266° (W) 2,966 6.0 -17.6°
Sets 20:38:13 0° 293° (WNW) 3,934 7.4 -18.1°
